Weather in Yazhelbitsy

Russia / Novgorod Oblast     58°02′10″N   32°57′35″E
temp.,
°C
wind,
m/s
gust,
m/s
humid.,
%
clouds,
%
prec.,
mm/h
press.,
hPa
HPBL,
m
28 september, tue
tue2800:00+6ne28955 0.0 1030192
03:00+5ene269710 0.0 1030140
06:00+4ene279821 0.0 1031148
09:00+7ene388749 0.0 1032414
12:00+8e3576100 0.0 1033622
15:00+10ese3468100 0.0 1033837
18:00+8e227519 0.0 103435
21:00+5e118511 0.0 103511
29 september, wed
wed2900:00+4ese22895 0.0 103613
03:00+3se119244 0.0 103710
06:00+3se119212 0.0 103710
09:00+6se117878 0.0 1037108
12:00+11se015983 0.0 1037647
15:00+12sse015297 0.0 1036928
18:00+8ene007198 0.0 103510
21:00+6ese118188 0.0 103610
30 september, thu
thu3000:00+5se118427 0.0 103611
03:00+4sse11865 0.0 103610
06:00+3sse11875 0.0 103610
09:00+7sse12735 0.0 1036133
12:00+11s12555 0.0 1035672
15:00+13s23495 0.0 1034975
18:00+9sse22705 0.0 103312
21:00+7sse237935 0.0 103454
1 october, fri
fri100:00+6s248556 0.0 103468
03:00+5s238955 0.0 103450
06:00+4s259136 0.0 103493
09:00+7s377670 0.0 1033254
12:00+11ssw36557 0.0 1033726
15:00+13ssw355216 0.0 1032973
18:00+9s22725 0.0 103118
21:00+7s278022 0.0 1031118
2 october, sat
sat200:00+6s278474 0.0 1031148
03:00+5s288824 0.0 1031151
06:00+4s39905 0.0 1030171
09:00+7s39765 0.0 1030285
12:00+12s47554 0.0 1029692
15:00+14s47511 0.0 10271042
18:00+10s310646 0.0 1027309
21:00+8s413735 0.0 1027458